Regional Weather Roundup
Issued by NWS

Home | Current Version | Previous Version | Graphics & Text | Print | Product List | Glossary On
Versions: 1 2 3 4 5 6 7 8 9 10 11 12 13 14 15 16 17 18 19 20 21 22 23 24 25 26 27 28 29 30 31 32 33 34 35 36 37 38 39 40 41 42 43 44 45 46 47 48 49 50
000
ASUS43 KOAX 241002
RWRNE

WEATHER ROUNDUP FOR NEBRASKA
NATIONAL WEATHER SERVICE OMAHA NE
400 AM CST WED JAN 24 2018

NOTES: SATELLITE DATA IS BEING USED TO AUGMENT CLOUD COVER ABOVE
       12000 FEET.
       "FAIR" INDICATES FEW OR NO CLOUDS BELOW 12,000 FEET WITH NO
       SIGNIFICANT WEATHER AND/OR OBSTRUCTIONS TO VISIBILITY.


NEZ001>004-019>022-054>056-241100-
NEBRASKA PANHANDLE

CITY           SKY/WX    TMP DP  RH WIND       PRES   REMARKS
SCOTTSBLUFF    CLEAR     11   6  81 CALM      30.18F
ALLIANCE       CLEAR      7   6  96 S8        30.16F WCI  -6
CHADRON        CLEAR     10   5  80 S7        30.14F WCI  -1
GORDON         FAIR      17  10  72 SW12      30.14F WCI   4
KIMBALL        CLEAR     15   9  77 SW8       30.18F WCI   4
SIDNEY         CLEAR      7   4  87 SW8       30.20F WCI  -6
$$

NEZ057>060-069>072-079>082-241100-
SOUTHWEST NEBRASKA

CITY           SKY/WX    TMP DP  RH WIND       PRES   REMARKS
NORTH PLATTE   CLEAR      6   3  87 NW3       30.26F
IMPERIAL       CLEAR     12   7  80 MISG      30.26F
LEXINGTON      CLEAR     17  13  84 NW8       30.28S WCI   6
MCCOOK         CLEAR     17  13  84 W12       30.29F WCI   4
OGALLALA       CLEAR     12   9  86 W7        30.24F WCI   1
$$

NEZ005>010-023>029-035>040-094-241100-
NORTH CENTRAL NEBRASKA

CITY           SKY/WX    TMP DP  RH WIND       PRES   REMARKS
VALENTINE      PTCLDY    16  10  77 W6        30.18F WCI   7
AINSWORTH      CLEAR     19  15  82 W9        30.19F WCI   9
BROKEN BOW     CLEAR     26  15  63 VRB3      30.23F
O`NEILL        CLEAR     22  18  83 W8        30.21F WCI  13
ORD            CLEAR     19  15  84 CALM      30.23F
THEDFORD       CLEAR     13   9  84 CALM      30.21F
$$

NEZ041-046>049-061>064-073>077-083>087-241100-
SOUTH CENTRAL NEBRASKA

CITY           SKY/WX    TMP DP  RH WIND       PRES   REMARKS
GRAND ISLAND   CLEAR     19  16  88 W13       30.26S WCI   6
AURORA         CLEAR     20  16  86 W7        30.26S WCI  11
HASTINGS       CLEAR     22  16  78 W8        30.27S WCI  12
HEBRON         CLEAR     27  22  81 W6        30.29F WCI  20
HOLDREGE       CLEAR     22  18  83 W9        30.27F WCI  12
YORK           CLEAR     21  19  93 NW7       30.25F WCI  13
$$

NEZ011>018-030>034-042>045-241100-
NORTHEAST NEBRASKA

CITY           SKY/WX    TMP DP  RH WIND       PRES   REMARKS
ALBION         CLEAR     22  18  84 NW5       30.25S WCI  15
BLAIR          CLEAR     22  20  92 NW8       30.23F WCI  12
COLUMBUS       LGT SNOW  10   7  87 CALM      30.27S VSB 3/4
FREMONT        CLEAR     16  15  94 NW5       30.26S WCI   9
TEKAMAH        CLEAR     14  11  87 NW10      30.26S WCI   1
WAYNE          CLEAR     11  10  96 S3        30.24S FOG
$$

NEZ050>053-065>068-078-088>093-241100-
SOUTHEAST NEBRASKA

CITY           SKY/WX    TMP DP  RH WIND       PRES   REMARKS
LINCOLN        CLEAR     20  18  92 SW3       30.29S
OMAHA EPPLEY   CLEAR     19  16  88 CALM      30.26S
BEATRICE       CLEAR     24  22  91 N6        30.27F WCI  17
FALLS CITY     CLEAR     26  23  88 W8        30.26S WCI  18
NEBRASKA CITY  CLEAR     26  26  98 NW3       30.26S
PLATTSMOUTH    CLEAR     24  22  94 W7        30.25S WCI  15
$$

NEZ044-045-051>053-067-241100-
OMAHA AREA

CITY           SKY/WX    TMP DP  RH WIND       PRES   REMARKS
OMAHA EPPLEY   CLEAR     19  16  88 CALM      30.26S
BLAIR          CLEAR     22  20  92 NW8       30.23F WCI  12
FREMONT        CLEAR     16  15  94 NW5       30.26S WCI   9
MILLARD        CLEAR     19  16  91 CALM      30.26F FOG
OFFUTT AFB     CLEAR     19  17  92 W6        30.25F WCI  11
PLATTSMOUTH    CLEAR     24  22  94 W7        30.25S WCI  15
WAHOO          FAIR      19  17  92 CALM      30.26S
$$




USA.gov is the U.S. government's official web portal to all federal, state and local government web resources and services.